MOLNIYA 2-13

Last updated on Mon Sep 17 2018 16:45:59 GMT+0000 (Coordinated Universal Time)

1 08015U 75063A 18255.20718139 .05960333 12270-1 38959-1 0 9994 2 08015 61.8419 37.2023 0537656 288.2862 149.0108 14.84113552316928

Satellite not in orbit

MOLNIYA 2-13